Notices

What's New in latest Release from April 7th, 2021:

- Updated Glossary, including Speed of Maximum Gust, and Total Hourly Precipitation

- Updated national and regional climate services offices contacts and prices information

- Addition of station inventory lists for 1981-2010, 1971-2000, and 1961-1990 Normals.

If you haven't already, please take our survey and provide feedback about our website: https://eccc.sondage-survey.ca/f/LanguageSelection.aspx?s=442ca660-fcf1-47c0-95a9-59707d6fd709

Hourly Data Report for November 30, 2004

SHERBROOKE A
QUEBEC

45°26'00.000" N
71°41'00.000" W
241.40 m
7028124
71610
YSC

Download Data

Hourly Data (November 2004)
Hourly Data Report for November 30, 2004
TIME
LST
Temp Definition
°C
Dew Point Definition
°C
Rel Hum Definition
%
Precip. Amount Definition
mm

Wind Dir Definition
10's deg

Wind Spd Definition
km/h
Visibility Definition
km
Stn Press Definition
kPa
Hmdx Definition


Wind Chill Definition


Weather Definition


00:00 -2.8 -6.1 78   21 4 15.0 99.58   -4  
01:00 -2.8 -5.6 81   17 6 15.0 99.55   -5  
02:00 -2.5 -5.7 79   17 6 15.0 99.57   -5  
03:00 -2.3 -5.7 77   14 6 15.0 99.52   -5  
04:00 -2.7 -6.1 77   21 4 15.0 99.51   -4  
05:00 -4.6 -6.6 86   35 4 15.0 99.50   -6  
06:00 -6.1 -7.7 88   14 9 15.0 99.45   -10  
07:00 -6.0 -7.7 88     0 15.0 99.48      
08:00 -4.3 -6.0 88     0 24.1 99.54     Clear
09:00 -2.0 -5.3 78     0 24.1 99.58     Clear
10:00 -0.2 -5.2 69   20 9 24.1 99.58   -3 Clear
11:00 1.5 -5.3 61   23 7 24.1 99.51     Clear
12:00 2.3 -6.4 53   23 9 24.1 99.42     Clear
13:00 3.0 -6.7 49   21 7 24.1 99.35     Clear
14:00 3.3 -5.9 51   26 9 24.1 99.30     Clear
15:00 3.1 -6.9 48   19 7 24.1 99.24     Clear
16:00 1.7 -7.4 51   22 4 24.1 99.26     Mainly Clear
17:00 -2.1 -6.4 72   18 6 24.1 99.25   -4 Mainly Clear
18:00 -2.3 -7.3 69   14 6 15.0 99.26   -5  
19:00 -3.1 -6.7 76   10 4 15.0 99.24   -5  
20:00 -3.1 -6.7 76   9 9 15.0 99.16   -7  
21:00 -3.1 -6.6 77   9 6 15.0 99.10   -6  
22:00 -3.9 -6.7 81   9 6 15.0 99.07   -7  
23:00 -3.6 -6.4 81   6 4 15.0 98.97   -5  

Notes on Data Quality.

Legend

  • E = Estimated
  • M = Missing
  • NA = Not Available*
  • [empty] = Indicates an unobserved value
Date modified: